This demonstration page uses our WeatherBlox Daily Observations layout. Learn more.

Left ArrowRight Arrow

41.55636, -103.73856

Hourly Observations for March 9, 2021

Temp ( °F °C ) Dew Point ( °F °C ) Humidity (%) Winds ( mph kmh ) Pressure ( in mb ) Visibility ( mi km ) Precip ( " mm )
12:58 am 00:58 Clear 49 9.6 18 -7.7 29 29 WSW 14 22 29.75 1008 10 16 0.00 0.00
1:58 am 01:58 Clear 41 4.8 19 -7 42 42 SW 17 28 29.77 1008 10 16 0.00 0.00
2:58 am 02:58 Clear 43 5.9 19 -7.3 38 38 SW 16 26 29.74 1007 10 16 0.00 0.00
3:58 am 03:58 Clear 41 4.8 19 -7.1 42 42 SW 16 26 29.74 1007 10 16 0.00 0.00
4:58 am 04:58 Clear 41 5 21 -6.3 44 44 SW 15 24 29.75 1008 10 16 0.00 0.00
5:58 am 05:58 Clear 43 5.9 20 -6.8 40 40 WSW 17 28 29.79 1009 10 16 0.00 0.00
6:58 am 06:58 Sunny 49 9.7 19 -7.3 30 30 WSW 15 24 29.76 1008 10 16 0.00 0.00
7:58 am 07:58 Sunny 56 13.5 20 -6.9 24 24 W 10 17 29.76 1008 10 16 0.00 0.00
8:58 am 08:58 Sunny 56 13.5 20 -6.7 24 24 WNW 15 24 29.77 1008 10 16 0.00 0.00
9:58 am 09:58 Sunny 62 16.6 15 -9.7 16 16 WNW 25 41 29.75 1008 10 16 0.00 0.00
10:58 am 10:58 Sunny 62 16.5 15 -9.4 16 16 NW 20 31 29.75 1008 10 16 0.00 0.00
11:58 am 11:58 Sunny 59 15.1 17 -8.3 19 19 N 21 33 29.76 1008 10 16 0.00 0.00
12:58 pm 12:58 Sunny 59 15.2 17 -8.5 19 19 NNW 21 33 29.73 1007 10 16 0.00 0.00
1:58 pm 13:58 Sunny 60 15.4 18 -7.6 20 20 N 16 26 29.74 1007 10 16 0.00 0.00
2:58 pm 14:58 Sunny 57 13.8 21 -6.3 24 24 NE 17 28 29.74 1007 10 16 0.00 0.00
3:58 pm 15:58 Sunny 55 12.9 21 -5.9 27 27 NNE 16 26 29.75 1007 10 16 0.00 0.00
4:58 pm 16:58 Sunny 53 11.7 24 -4.7 32 32 NE 16 26 29.72 1007 10 16 0.00 0.00
5:58 pm 17:58 Mostly Cloudy 47 8.6 21 -6.1 35 35 NE 14 22 29.74 1007 10 16 0.00 0.00
6:58 pm 18:58 Mostly Cloudy 45 7 23 -4.8 43 43 NE 16 26 29.74 1007 10 16 0.00 0.00
7:58 pm 19:58 Partly Cloudy 42 5.7 26 -3.6 52 52 NE 13 20 29.68 1005 10 16 0.00 0.00
8:58 pm 20:58 Mostly Cloudy 41 5 28 -2.1 60 60 NE 20 31 29.70 1006 10 16 0.00 0.00
9:58 pm 21:58 Mostly Cloudy 38 3.4 28 -2 68 68 NNE 12 19 29.71 1006 10 16 0.00 0.00
10:58 pm 22:58 Cloudy with Light Rain 37 2.8 29 -1.7 73 73 NE 16 26 29.72 1006 10 16 0.00 0.00
11:58 pm 23:58 Cloudy with Snow 32 0 30 -1.1 92 92 NE 16 26 29.72 1007 5 8 0.01 0.25

Powered by AerisWeather